TKJ40Q LTCV-LTAC

Flight info

Callsign TKJ40Q
Flight time 1h 17m
Altitude 34000
Route ABDIK UW197 SRT UL614 JUPNE UT54 AVCES UL605 YUCEL
Aircraft A320/M-SDE3FGHIRWY/LB1

Departure

Time 2026-04-28 15:07
Airport Şırnak Şerafettin Elçi Airport (LTCV)

Arrival

Time 2026-04-28 16:25
Airport Esenboğa International Airport (LTAC)
Time Latitude Longitude Altitude Speed Heading
2026-04-28 14:39 37.36149 42.05782 2068 ft 0 kts 245°
2026-04-28 15:00 37.36159 42.05805 2069 ft 4 kts 223°
2026-04-28 15:01 37.36180 42.05817 2071 ft 4 kts 166°
2026-04-28 15:01 37.36199 42.05801 2071 ft 3 kts 117°
2026-04-28 15:01 37.36201 42.05797 2071 ft 2 kts 115°
2026-04-28 15:03 37.36200 42.05800 2071 ft 4 kts 115°
2026-04-28 15:03 37.36189 42.05871 2064 ft 11 kts 72°
2026-04-28 15:03 37.36250 42.05923 2076 ft 12 kts 26°
2026-04-28 15:04 37.36334 42.05971 2075 ft 16 kts 24°
2026-04-28 15:04 37.36424 42.05953 2074 ft 18 kts 285°
2026-04-28 15:04 37.36473 42.05820 2075 ft 19 kts 295°
2026-04-28 15:04 37.36539 42.05647 2074 ft 26 kts 295°
2026-04-28 15:05 37.36626 42.05418 2074 ft 32 kts 295°
2026-04-28 15:05 37.36726 42.05152 2075 ft 32 kts 295°
2026-04-28 15:05 37.36831 42.04878 2071 ft 38 kts 296°
2026-04-28 15:05 37.36942 42.04594 2073 ft 32 kts 295°
2026-04-28 15:06 37.37004 42.04383 2071 ft 16 kts 260°
2026-04-28 15:06 37.37026 42.04310 2069 ft 8 kts 25°
2026-04-28 15:06 37.37026 42.04367 2070 ft 6 kts 114°
2026-04-28 15:06 37.37017 42.04390 2071 ft 1 kts 116°
2026-04-28 15:07 37.36924 42.04633 2074 ft 73 kts 115°
2026-04-28 15:07 37.36595 42.05497 2074 ft 142 kts 115°
2026-04-28 15:07 37.36091 42.06821 2256 ft 183 kts 116°
2026-04-28 15:07 37.35501 42.08329 2912 ft 199 kts 117°
2026-04-28 15:08 37.35004 42.10013 3543 ft 218 kts 98°
2026-04-28 15:08 37.35252 42.11897 4084 ft 229 kts 65°
2026-04-28 15:08 37.36322 42.13385 4707 ft 236 kts 34°
2026-04-28 15:08 37.37797 42.14382 5334 ft 245 kts 27°
2026-04-28 15:09 37.39346 42.15314 5981 ft 248 kts 27°
2026-04-28 15:09 37.40912 42.16233 6600 ft 250 kts 27°
2026-04-28 15:09 37.42504 42.17160 7211 ft 253 kts 27°
2026-04-28 15:09 37.43567 42.17782 7616 ft 256 kts 26°
2026-04-28 15:10 37.45919 42.18301 8464 ft 263 kts 352°
2026-04-28 15:10 37.47651 42.17540 9106 ft 269 kts 332°
2026-04-28 15:10 37.49309 42.16435 9765 ft 269 kts 332°
2026-04-28 15:10 37.50971 42.15312 10370 ft 271 kts 332°
2026-04-28 15:11 37.52647 42.14176 10924 ft 278 kts 331°
2026-04-28 15:11 37.54425 42.12971 11150 ft 302 kts 331°
2026-04-28 15:11 37.56344 42.11674 11343 ft 325 kts 331°
2026-04-28 15:11 37.58411 42.10278 11489 ft 348 kts 331°
2026-04-28 15:12 37.60601 42.08801 11728 ft 364 kts 331°
2026-04-28 15:12 37.62856 42.07284 12338 ft 368 kts 331°
2026-04-28 15:12 37.65097 42.05782 13057 ft 371 kts 332°
2026-04-28 15:12 37.67415 42.04225 13715 ft 375 kts 331°
2026-04-28 15:13 37.69724 42.02665 14309 ft 378 kts 331°
2026-04-28 15:13 37.72016 42.01111 14870 ft 380 kts 331°
2026-04-28 15:13 37.74358 41.99524 15459 ft 382 kts 330°
2026-04-28 15:13 37.76712 41.97932 16000 ft 386 kts 331°
2026-04-28 15:14 37.79083 41.96328 16577 ft 388 kts 331°
2026-04-28 15:14 37.81470 41.94710 17142 ft 390 kts 330°
2026-04-28 15:14 37.83868 41.93084 17732 ft 393 kts 331°
2026-04-28 15:14 37.86283 41.91441 18305 ft 395 kts 329°
2026-04-28 15:15 37.88554 41.89473 18784 ft 397 kts 319°
2026-04-28 15:15 37.89927 41.87864 19115 ft 399 kts 312°
2026-04-28 15:15 37.92139 41.84141 19771 ft 401 kts 298°
2026-04-28 15:15 37.92975 41.82054 20095 ft 402 kts 292°
2026-04-28 15:16 37.94016 41.78750 20559 ft 405 kts 290°
2026-04-28 15:16 37.95055 41.75418 21025 ft 408 kts 290°
2026-04-28 15:16 37.96101 41.72062 21475 ft 410 kts 291°
2026-04-28 15:16 37.97151 41.68695 21954 ft 412 kts 291°
2026-04-28 15:17 37.98203 41.65309 22425 ft 414 kts 291°
2026-04-28 15:17 37.99265 41.61878 22848 ft 417 kts 291°
2026-04-28 15:17 38.00324 41.58449 23263 ft 420 kts 291°
2026-04-28 15:17 38.01393 41.54995 23688 ft 421 kts 291°
2026-04-28 15:18 38.02470 41.51520 24027 ft 424 kts 291°
2026-04-28 15:18 38.03549 41.48035 24400 ft 426 kts 291°
2026-04-28 15:18 38.04633 41.44529 24732 ft 428 kts 291°
2026-04-28 15:18 38.05723 41.41000 25051 ft 431 kts 290°
2026-04-28 15:19 38.06817 41.37445 25387 ft 433 kts 290°
2026-04-28 15:19 38.07913 41.33876 25735 ft 435 kts 290°
2026-04-28 15:19 38.09012 41.30291 26068 ft 438 kts 290°
2026-04-28 15:19 38.10119 41.26672 26419 ft 440 kts 290°
2026-04-28 15:20 38.11229 41.23040 26771 ft 442 kts 290°
2026-04-28 15:20 38.12344 41.19391 27102 ft 445 kts 289°
2026-04-28 15:20 38.13466 41.15714 27438 ft 447 kts 289°
2026-04-28 15:20 38.14592 41.12028 27799 ft 448 kts 289°
2026-04-28 15:21 38.15730 41.08349 28282 ft 447 kts 289°
2026-04-28 15:21 38.16879 41.04682 28767 ft 446 kts 289°
2026-04-28 15:21 38.18031 41.01015 29249 ft 445 kts 289°
2026-04-28 15:21 38.19176 40.97365 29738 ft 444 kts 289°
2026-04-28 15:22 38.20300 40.93769 30231 ft 442 kts 289°
2026-04-28 15:22 38.21431 40.90145 30698 ft 440 kts 289°
2026-04-28 15:22 38.22553 40.86538 31158 ft 438 kts 289°
2026-04-28 15:22 38.23667 40.82942 31596 ft 436 kts 289°
2026-04-28 15:23 38.24773 40.79346 32035 ft 435 kts 289°
2026-04-28 15:23 38.25856 40.75768 32473 ft 433 kts 288°
2026-04-28 15:23 38.26929 40.72181 32913 ft 432 kts 288°
2026-04-28 15:23 38.27993 40.68607 33369 ft 431 kts 288°
2026-04-28 15:24 38.29052 40.65047 33812 ft 430 kts 288°
2026-04-28 15:24 38.30109 40.61493 33921 ft 432 kts 288°
2026-04-28 15:24 38.31184 40.57881 33939 ft 439 kts 288°
2026-04-28 15:25 38.33361 40.50573 33939 ft 442 kts 288°
2026-04-28 15:25 38.35552 40.43244 33943 ft 442 kts 288°
2026-04-28 15:26 38.37726 40.35924 33941 ft 441 kts 288°
2026-04-28 15:26 38.39880 40.28655 33938 ft 441 kts 288°
2026-04-28 15:27 38.42042 40.21332 33937 ft 442 kts 288°
2026-04-28 15:27 38.44224 40.13902 33931 ft 453 kts 288°
2026-04-28 15:28 38.46439 40.06353 33924 ft 455 kts 288°
2026-04-28 15:28 38.48653 39.98793 33926 ft 455 kts 288°
2026-04-28 15:29 38.50857 39.91220 33932 ft 455 kts 288°
2026-04-28 15:29 38.53058 39.83662 33925 ft 453 kts 288°
2026-04-28 15:30 38.55249 39.76123 33925 ft 453 kts 288°
2026-04-28 15:30 38.57431 39.68577 33925 ft 453 kts 288°
2026-04-28 15:31 38.59610 39.61018 33934 ft 453 kts 288°
2026-04-28 15:31 38.61780 39.53478 33938 ft 452 kts 288°
2026-04-28 15:32 38.63962 39.45939 33932 ft 452 kts 288°
2026-04-28 15:32 38.66174 39.38420 33933 ft 452 kts 289°
2026-04-28 15:33 38.68379 39.30870 33937 ft 452 kts 288°
2026-04-28 15:33 38.70552 39.23328 33932 ft 451 kts 285°
2026-04-28 15:34 38.71862 39.15570 33926 ft 449 kts 279°
2026-04-28 15:34 38.73030 39.07726 33936 ft 448 kts 279°
2026-04-28 15:35 38.74195 38.99878 33937 ft 448 kts 279°
2026-04-28 15:35 38.75925 38.88120 33931 ft 448 kts 279°
2026-04-28 15:36 38.77112 38.80293 33927 ft 448 kts 279°
2026-04-28 15:36 38.78296 38.72451 33931 ft 447 kts 279°
2026-04-28 15:37 38.79468 38.64627 33929 ft 447 kts 279°
2026-04-28 15:37 38.80437 38.58124 33928 ft 447 kts 279°
2026-04-28 15:38 38.81793 38.48968 33924 ft 446 kts 279°
2026-04-28 15:38 38.82937 38.41200 33929 ft 446 kts 279°
2026-04-28 15:39 38.84087 38.33382 33937 ft 446 kts 279°
2026-04-28 15:39 38.85228 38.25562 33937 ft 446 kts 279°
2026-04-28 15:40 38.86360 38.17745 33939 ft 446 kts 279°
2026-04-28 15:40 38.87486 38.09925 33947 ft 445 kts 279°
2026-04-28 15:41 38.88616 38.02096 33941 ft 445 kts 279°
2026-04-28 15:41 38.89738 37.94278 33946 ft 445 kts 279°
2026-04-28 15:42 38.90842 37.86463 33946 ft 445 kts 279°
2026-04-28 15:42 38.91946 37.78654 33954 ft 444 kts 279°
2026-04-28 15:43 38.93048 37.70839 33957 ft 444 kts 279°
2026-04-28 15:43 38.94145 37.63026 33947 ft 444 kts 279°
2026-04-28 15:44 38.95239 37.55209 33953 ft 444 kts 279°
2026-04-28 15:44 38.96326 37.47398 33959 ft 444 kts 278°
2026-04-28 15:45 38.97397 37.39634 33963 ft 444 kts 278°
2026-04-28 15:45 38.98466 37.31822 33966 ft 444 kts 278°
2026-04-28 15:46 38.99533 37.24010 33961 ft 444 kts 278°
2026-04-28 15:46 39.00602 37.16193 33978 ft 442 kts 278°
2026-04-28 15:47 39.01636 37.08558 33817 ft 429 kts 278°
2026-04-28 15:47 39.02142 37.04779 33601 ft 428 kts 278°
2026-04-28 15:47 39.02645 37.01004 33378 ft 428 kts 278°
2026-04-28 15:48 39.03150 36.97216 33171 ft 429 kts 278°
2026-04-28 15:48 39.03655 36.93439 32956 ft 430 kts 278°
2026-04-28 15:48 39.04163 36.89646 32740 ft 430 kts 278°
2026-04-28 15:48 39.04672 36.85851 32535 ft 430 kts 278°
2026-04-28 15:49 39.05178 36.82056 32322 ft 430 kts 278°
2026-04-28 15:49 39.05681 36.78265 32117 ft 431 kts 278°
2026-04-28 15:49 39.06181 36.74461 31911 ft 431 kts 278°
2026-04-28 15:49 39.06680 36.70657 31708 ft 432 kts 278°
2026-04-28 15:50 39.07180 36.66840 31501 ft 433 kts 278°
2026-04-28 15:50 39.07678 36.63023 31300 ft 433 kts 278°
2026-04-28 15:50 39.08177 36.59193 31100 ft 434 kts 278°
2026-04-28 15:50 39.08675 36.55354 30908 ft 435 kts 278°
2026-04-28 15:51 39.09172 36.51516 30708 ft 435 kts 278°
2026-04-28 15:51 39.09670 36.47672 30510 ft 436 kts 278°
2026-04-28 15:51 39.10168 36.43820 30321 ft 436 kts 278°
2026-04-28 15:51 39.10668 36.39963 30115 ft 437 kts 278°
2026-04-28 15:52 39.11169 36.36098 29912 ft 438 kts 278°
2026-04-28 15:52 39.11669 36.32232 29684 ft 438 kts 278°
2026-04-28 15:52 39.12167 36.28351 29457 ft 439 kts 278°
2026-04-28 15:52 39.12661 36.24470 29233 ft 440 kts 278°
2026-04-28 15:53 39.13154 36.20583 29010 ft 440 kts 278°
2026-04-28 15:53 39.13645 36.16689 28794 ft 441 kts 278°
2026-04-28 15:53 39.14136 36.12784 28573 ft 442 kts 278°
2026-04-28 15:53 39.14628 36.08871 28348 ft 442 kts 278°
2026-04-28 15:54 39.15125 36.04965 28129 ft 443 kts 279°
2026-04-28 15:54 39.15905 36.01121 27917 ft 445 kts 288°
2026-04-28 15:54 39.17007 35.97389 27700 ft 446 kts 290°
2026-04-28 15:54 39.18125 35.93660 27490 ft 447 kts 289°
2026-04-28 15:55 39.19224 35.89974 27299 ft 441 kts 289°
2026-04-28 15:55 39.20325 35.86264 27079 ft 435 kts 289°
2026-04-28 15:55 39.21381 35.82685 26875 ft 432 kts 289°
2026-04-28 15:55 39.22444 35.79068 26674 ft 430 kts 289°
2026-04-28 15:56 39.23508 35.75457 26468 ft 429 kts 289°
2026-04-28 15:56 39.24567 35.71867 26267 ft 428 kts 289°
2026-04-28 15:56 39.25622 35.68285 26065 ft 427 kts 289°
2026-04-28 15:56 39.26673 35.64700 25874 ft 426 kts 289°
2026-04-28 15:57 39.27719 35.61132 25666 ft 424 kts 289°
2026-04-28 15:57 39.28762 35.57567 25479 ft 423 kts 289°
2026-04-28 15:57 39.29449 35.55217 25344 ft 423 kts 289°
2026-04-28 15:57 39.30485 35.51667 25149 ft 421 kts 289°
2026-04-28 15:58 39.31515 35.48137 24953 ft 420 kts 289°
2026-04-28 15:58 39.32547 35.44601 24761 ft 419 kts 289°
2026-04-28 15:58 39.33571 35.41086 24579 ft 418 kts 289°
2026-04-28 15:58 39.34591 35.37575 24378 ft 417 kts 289°
2026-04-28 15:59 39.35608 35.34070 24199 ft 415 kts 289°
2026-04-28 15:59 39.36624 35.30569 24009 ft 414 kts 289°
2026-04-28 15:59 39.37632 35.27086 23826 ft 413 kts 289°
2026-04-28 15:59 39.38636 35.23605 23641 ft 412 kts 289°
2026-04-28 16:00 39.39623 35.20180 23440 ft 411 kts 289°
2026-04-28 16:00 39.40623 35.16718 23218 ft 410 kts 289°
2026-04-28 16:00 39.41629 35.13274 22993 ft 409 kts 289°
2026-04-28 16:00 39.42640 35.09848 22784 ft 407 kts 290°
2026-04-28 16:01 39.43653 35.06435 22555 ft 405 kts 290°
2026-04-28 16:01 39.44664 35.03034 22357 ft 404 kts 290°
2026-04-28 16:01 39.45669 34.99646 22142 ft 403 kts 290°
2026-04-28 16:01 39.46670 34.96261 21937 ft 402 kts 290°
2026-04-28 16:02 39.47662 34.92885 21724 ft 401 kts 290°
2026-04-28 16:02 39.48650 34.89511 21511 ft 400 kts 290°
2026-04-28 16:02 39.49629 34.86160 21317 ft 399 kts 290°
2026-04-28 16:02 39.50613 34.82799 21110 ft 397 kts 290°
2026-04-28 16:03 39.51589 34.79458 20905 ft 396 kts 290°
2026-04-28 16:03 39.52559 34.76130 20702 ft 395 kts 290°
2026-04-28 16:03 39.53526 34.72806 20501 ft 394 kts 290°
2026-04-28 16:03 39.54495 34.69486 20297 ft 393 kts 290°
2026-04-28 16:04 39.55458 34.66182 20098 ft 392 kts 290°
2026-04-28 16:04 39.56415 34.62880 19906 ft 391 kts 290°
2026-04-28 16:04 39.57368 34.59587 19707 ft 390 kts 290°
2026-04-28 16:04 39.58317 34.56302 19515 ft 389 kts 290°
2026-04-28 16:05 39.59264 34.53022 19323 ft 388 kts 290°
2026-04-28 16:05 39.60211 34.49742 19126 ft 387 kts 290°
2026-04-28 16:05 39.61154 34.46471 18936 ft 386 kts 289°
2026-04-28 16:05 39.61920 34.43146 18746 ft 385 kts 282°
2026-04-28 16:06 39.62323 34.39721 18563 ft 384 kts 274°
2026-04-28 16:06 39.62373 34.36269 18367 ft 383 kts 267°
2026-04-28 16:06 39.62110 34.32833 18170 ft 382 kts 264°
2026-04-28 16:06 39.61803 34.29414 17952 ft 381 kts 263°
2026-04-28 16:07 39.61487 34.26002 17736 ft 380 kts 263°
2026-04-28 16:07 39.61240 34.22587 17518 ft 380 kts 271°
2026-04-28 16:07 39.62808 34.16185 17020 ft 378 kts 304°
2026-04-28 16:08 39.64365 34.13498 16763 ft 377 kts 307°
2026-04-28 16:08 39.65976 34.10765 16497 ft 376 kts 307°
2026-04-28 16:08 39.67546 34.08111 16249 ft 374 kts 307°
2026-04-28 16:09 39.70708 34.02776 15743 ft 371 kts 307°
2026-04-28 16:09 39.72276 34.00122 15492 ft 370 kts 307°
2026-04-28 16:09 39.73838 33.97470 15242 ft 368 kts 307°
2026-04-28 16:10 39.76925 33.92196 14745 ft 366 kts 306°
2026-04-28 16:10 39.78459 33.89562 14479 ft 365 kts 306°
2026-04-28 16:10 39.81515 33.84323 13963 ft 362 kts 306°
2026-04-28 16:11 39.84552 33.79128 13404 ft 359 kts 307°
2026-04-28 16:11 39.87574 33.73963 12825 ft 357 kts 306°
2026-04-28 16:12 39.90567 33.68824 12252 ft 355 kts 307°
2026-04-28 16:12 39.92054 33.66265 11972 ft 354 kts 307°
2026-04-28 16:13 39.95007 33.61159 11410 ft 352 kts 306°
2026-04-28 16:13 39.96375 33.58532 11137 ft 350 kts 296°
2026-04-28 16:13 39.97062 33.52418 10711 ft 349 kts 262°
2026-04-28 16:14 39.96334 33.46173 10328 ft 347 kts 262°
2026-04-28 16:14 39.95595 33.39963 9933 ft 343 kts 262°
2026-04-28 16:15 39.94896 33.34033 9530 ft 320 kts 262°
2026-04-28 16:15 39.94563 33.31217 9321 ft 310 kts 262°
2026-04-28 16:15 39.94235 33.28472 9110 ft 302 kts 262°
2026-04-28 16:16 39.93605 33.23201 8697 ft 287 kts 262°
2026-04-28 16:16 39.93303 33.20662 8494 ft 281 kts 262°
2026-04-28 16:17 39.92706 33.15663 8112 ft 275 kts 262°
2026-04-28 16:17 39.92416 33.13241 7962 ft 267 kts 262°
2026-04-28 16:17 39.92133 33.10886 7811 ft 260 kts 262°
2026-04-28 16:17 39.91855 33.08591 7662 ft 253 kts 262°
2026-04-28 16:18 39.91582 33.06353 7512 ft 248 kts 262°
2026-04-28 16:18 39.91319 33.04167 7367 ft 241 kts 263°
2026-04-28 16:18 39.91070 33.02060 7226 ft 235 kts 264°
2026-04-28 16:18 39.91074 32.99971 7075 ft 227 kts 279°
2026-04-28 16:19 39.91450 32.98023 6928 ft 219 kts 292°
2026-04-28 16:19 39.92140 32.96296 6777 ft 211 kts 304°
2026-04-28 16:19 39.92990 32.94787 6616 ft 201 kts 306°
2026-04-28 16:19 39.93792 32.93359 6424 ft 190 kts 306°
2026-04-28 16:20 39.94554 32.91998 6218 ft 182 kts 306°
2026-04-28 16:20 39.95286 32.90692 6034 ft 178 kts 306°
2026-04-28 16:20 39.96021 32.89382 5839 ft 179 kts 307°
2026-04-28 16:20 39.96756 32.88076 5635 ft 178 kts 307°
2026-04-28 16:21 39.97692 32.87057 5416 ft 177 kts 335°
2026-04-28 16:21 39.98901 32.86837 5226 ft 180 kts
2026-04-28 16:21 40.00027 32.87537 5055 ft 185 kts 33°
2026-04-28 16:21 40.01063 32.88515 4950 ft 183 kts 32°
2026-04-28 16:22 40.02101 32.89484 4943 ft 181 kts 32°
2026-04-28 16:22 40.03062 32.90393 4917 ft 164 kts 33°
2026-04-28 16:22 40.03969 32.91251 4871 ft 157 kts 32°
2026-04-28 16:22 40.04837 32.92075 4720 ft 152 kts 31°
2026-04-28 16:23 40.05695 32.92888 4535 ft 153 kts 33°
2026-04-28 16:23 40.06543 32.93694 4338 ft 149 kts 32°
2026-04-28 16:23 40.07382 32.94490 4132 ft 152 kts 36°
2026-04-28 16:23 40.08234 32.95299 3959 ft 151 kts 34°
2026-04-28 16:24 40.09065 32.96091 3748 ft 144 kts 34°
2026-04-28 16:24 40.09863 32.96849 3548 ft 141 kts 34°
2026-04-28 16:24 40.10657 32.97606 3357 ft 142 kts 37°
2026-04-28 16:24 40.11438 32.98349 3148 ft 138 kts 37°
2026-04-28 16:25 40.12118 32.98995 3116 ft 99 kts 36°
2026-04-28 16:25 40.12532 32.99392 3120 ft 49 kts 36°
2026-04-28 16:25 40.12754 32.99603 3123 ft 35 kts 36°
2026-04-28 16:25 40.12930 32.99774 3124 ft 25 kts 39°
2026-04-28 16:26 40.13026 32.99932 3125 ft 20 kts 62°
2026-04-28 16:26 40.13077 33.00070 3126 ft 13 kts 65°
2026-04-28 16:26 40.13068 33.00172 3126 ft 13 kts 148°
2026-04-28 16:26 40.12982 33.00129 3125 ft 15 kts 214°
2026-04-28 16:27 40.12887 33.00039 3125 ft 20 kts 216°
2026-04-28 16:27 40.12767 32.99923 3124 ft 19 kts 216°
2026-04-28 16:27 40.12540 32.99706 3122 ft 22 kts 216°
2026-04-28 16:28 40.12411 32.99582 3120 ft 24 kts 216°
2026-04-28 16:28 40.12319 32.99494 3119 ft 25 kts 216°
2026-04-28 16:28 40.12119 32.99303 3117 ft 28 kts 216°
2026-04-28 16:28 40.11962 32.99153 3115 ft 20 kts 216°
2026-04-28 16:29 40.11778 32.99084 3113 ft 13 kts 127°
2026-04-28 16:29 40.11736 32.99266 3113 ft 12 kts 71°
2026-04-28 16:30 40.11762 32.99367 3113 ft 11 kts 73°
2026-04-28 16:30 40.11744 32.99417 3113 ft 6 kts 166°
2026-04-28 16:30 40.11724 32.99421 3113 ft 3 kts 169°
2026-04-28 16:30 40.11706 32.99426 3113 ft 1 kts 169°
2026-04-28 16:31 40.11701 32.99427 3113 ft 0 kts 169°